Weather History for K8D3 - August, 2013

Change the Weather History Date:

Sunday, August 18, 2013

  Actual Average Record
Temperature  
Mean Temperature 74 °F 69 °F  
Max Temperature 84 °F 81 °F 105 °F (1976)
Min Temperature 64 °F 57 °F 38 °F (1950)
Degree Days  
Heating Degree Days 0 1  
Month to date heating degree days 23 9  
Since 1 June heating degree days 118 84  
Since 1 July heating degree days 49 22  
Cooling Degree Days 9 5  
Month to date cooling degree days 27 105  
Year to date cooling degree days 375 427  
Since 1 June cooling degree days 350 404  
Growing Degree Days 23 (Base 50)    
Moisture  
Dew Point 63 °F    
Average Humidity 73    
Maximum Humidity 87    
Minimum Humidity 58    
Precipitation  
Precipitation 0.00 in 0.05 in 1.98 in (1961)
Month to date precipitation 0.64 1.43  
Year to date precipitation 18.36 15.73  
Sea Level Pressure  
Sea Level Pressure 29.91 in    
Wind  
Wind Speed 11 mph (SSW)    
Max Wind Speed 20 mph    
Max Gust Speed 25 mph    
T = Trace of Precipitation, MM = Missing Value Source: NWS Daily Summary

Daily Weather History Graph

Daily Weather History Graph

Search for Another Location

Airport or City:

Trip Planner

Search our weather history database for the weather conditions in past years. The results will help you decide how hot, cold, wet, or windy it might be!

Date:

Astronomy

Aug. 18, 2013 Rise Set
Actual Time 6:32 AM CDT 8:30 PM CDT
Civil Twilight 6:00 AM CDT 9:02 PM CDT
Nautical Twilight 5:20 AM CDT 9:41 PM CDT
Astronomical Twilight 4:37 AM CDT 10:24 PM CDT
Moon 6:40 PM CDT (8/18) 3:38 AM CDT (8/18)
Length of Visible Light 15h 02m
Length of Day
13h 58m
Waxing Gibbous, 92% of the Moon is Illuminated
Aug 18
Waxing Gibbous
Aug 20
Full
Aug 28
Last Quarter
Sep 5
New
Sep 12
First Quarter

Hourly Weather History & Observations

Time (CDT) Temp. Heat Index Dew Point Humidity Pressure Visibility Wind Dir Wind Speed Gust Speed Precip Events Conditions
12:56 AM 66.9 °F - 61.0 °F 81% 29.96 in - South 8.1 mph - N/A   Unknown
1:56 AM 64.9 °F - 60.1 °F 84% 29.97 in - South 8.1 mph - N/A   Unknown
2:56 AM 66.0 °F - 59.0 °F 78% 29.97 in - SSW 8.1 mph - N/A   Unknown
3:56 AM 66.0 °F - 59.0 °F 78% 29.96 in - SSW 10.4 mph - N/A   Unknown
4:56 AM 66.0 °F - 59.0 °F 78% 29.94 in - SSW 10.4 mph - N/A   Unknown
5:56 AM 64.0 °F - 57.9 °F 80% 29.94 in - SSW 10.4 mph - N/A   Unknown
6:56 AM 66.0 °F - 57.9 °F 75% 29.94 in - SW 12.7 mph 21.9 mph N/A   Unknown
7:56 AM 66.0 °F - 57.9 °F 75% 29.94 in - SSW 12.7 mph 20.7 mph N/A   Unknown
8:56 AM 69.1 °F - 60.1 °F 73% 29.95 in - SSW 12.7 mph 18.4 mph N/A   Unknown
9:56 AM 72.0 °F - 61.0 °F 68% 29.93 in - SSW 12.7 mph 21.9 mph N/A   Unknown
10:56 AM 75.0 °F - 63.0 °F 66% 29.91 in - SSW 11.5 mph 19.6 mph N/A   Unknown
11:56 AM 77.0 °F - 64.0 °F 64% 29.90 in - SSW 11.5 mph 20.7 mph N/A   Unknown
12:56 PM 79.0 °F - 64.9 °F 62% 29.90 in - SSW 12.7 mph - N/A   Unknown
1:56 PM 82.0 °F 84.5 °F 66.9 °F 60% 29.88 in - SSW 17.3 mph 24.2 mph N/A   Unknown
2:56 PM 82.9 °F 85.4 °F 66.9 °F 58% 29.89 in - SW 12.7 mph 23.0 mph N/A   Unknown
3:56 PM 82.9 °F 85.4 °F 66.9 °F 58% 29.89 in - SW 9.2 mph 18.4 mph N/A   Unknown
4:56 PM 82.0 °F 84.5 °F 66.9 °F 60% 29.88 in - SSW 12.7 mph - N/A   Unknown
5:56 PM 81.0 °F 83.3 °F 66.9 °F 62% 29.88 in - SSW 11.5 mph - N/A   Unknown
6:56 PM 79.0 °F - 66.9 °F 66% 29.86 in - SSW 9.2 mph - N/A   Unknown
7:56 PM 77.0 °F - 66.9 °F 71% 29.84 in - SSW 4.6 mph - N/A   Unknown
8:56 PM 75.0 °F - 66.9 °F 76% 29.86 in - SSW 6.9 mph - N/A   Unknown
9:56 PM 75.0 °F - 66.0 °F 73% 29.86 in - SW 12.7 mph 19.6 mph N/A   Unknown
10:56 PM 73.9 °F - 66.0 °F 76% 29.87 in - SW 10.4 mph - N/A   Unknown
11:56 PM 73.9 °F - 66.0 °F 76% 29.86 in - SW 12.7 mph 20.7 mph N/A   Unknown